Simultaneous Nadir Overpasses (SNOs) Predictions

Prediction of SNOs between GOES-15 and METOP-A Satellite Orbit:

Table of predicted SNOs for the next 14.0 days since TLE Epoch: 5/18/2018
Index Date Time (GOES-15) GOES-15 Lat,Lon METOP-A Lat,Lon Distance(km) Time Diff (sec)
1 05/19/2018 18:27:09 -0.16,-135.33 -0.00,-135.95 71.43 80
2 05/20/2018 18:03:49 -0.16,-135.30 -1.15,-130.96 495.13 80
3 05/22/2018 06:22:46 0.16,-135.25 0.11,-135.55 34.64 80
4 05/24/2018 18:20:54 -0.17,-135.21 -0.17,-135.12 9.99 80
5 05/27/2018 06:21:50 0.17,-135.12 0.23,-134.71 45.93 80
6 05/28/2018 18:40:40 -0.16,-135.10 0.74,-139.29 476.65 80
7 05/29/2018 18:17:19 -0.17,-135.07 -0.35,-134.29 89.06 80
8 05/31/2018 06:38:56 0.17,-135.00 -0.68,-138.88 442.44 80
9 06/01/2018 06:16:32 0.18,-134.96 0.41,-133.88 122.99 22




NCC Satellite Simultaneous Nadir Overpasses (SNOs) Prediction Service
